This is the latest recevied weather packets stored in our database for station/object K7AEL. If no packets are shown the sender has not sent any weather packets the latest 10 day(s).
| Time | Temp. | Humidity | Pressure | Rain* | Wind** | Luminosity | Snow |
|---|---|---|---|---|---|---|---|
| 1777677952 | 30.56° C | 19% | 1010.7 hPa | 0 mm | - | 306 W/m² | - |
| 1777677649 | 30.56° C | 20% | 1010.8 hPa | 0 mm | - | 315 W/m² | - |
| 1777677347 | 31.11° C | 18% | 1010.9 hPa | 0 mm | - | 333 W/m² | - |
| 1777677045 | 31.11° C | 18% | 1010.9 hPa | 0 mm | - | 350 W/m² | - |
| 1777676743 | 30.56° C | 18% | 1010.7 hPa | 0 mm | - | 362 W/m² | - |
| 1777676441 | 31.11° C | 19% | 1010.7 hPa | 0 mm | - | 373 W/m² | - |
| 1777676138 | 30° C | 20% | 1010.9 hPa | 0 mm | - | 391 W/m² | - |
| 1777675834 | 30.56° C | 20% | 1010.8 hPa | 0 mm | - | 403 W/m² | - |
| 1777675532 | 31.11° C | 19% | 1011 hPa | 0 mm | - | 418 W/m² | - |
| 1777675229 | 30.56° C | 20% | 1011.1 hPa | 0 mm | - | 431 W/m² | - |
| 1777674926 | 30.56° C | 20% | 1011.2 hPa | 0 mm | - | 450 W/m² | - |
| 1777674622 | 30.56° C | 20% | 1011.2 hPa | 0 mm | - | 459 W/m² | - |
| 1777674321 | 30° C | 20% | 1011.1 hPa | 0 mm | - | 474 W/m² | - |
| 1777674016 | 30° C | 21% | 1011.3 hPa | 0 mm | - | 489 W/m² | - |
| 1777673711 | 30° C | 21% | 1011.4 hPa | 0 mm | - | 502 W/m² | - |
| 1777673409 | 29.44° C | 21% | 1011.3 hPa | 0 mm | - | 514 W/m² | - |
| 1777673101 | 30° C | 21% | 1011.4 hPa | 0 mm | - | 525 W/m² | - |
| 1777672797 | 30.56° C | 20% | 1011.7 hPa | 0 mm | - | 535 W/m² | - |
| 1777672494 | 30° C | 21% | 1011.8 hPa | 0 mm | - | 551 W/m² | - |
| 1777672189 | 30.56° C | 21% | 1011.8 hPa | 0 mm | - | 564 W/m² | - |
| 1777671885 | 30.56° C | 21% | 1012 hPa | 0 mm | - | 572 W/m² | - |
| 1777671580 | 30° C | 21% | 1011.9 hPa | 0 mm | - | 582 W/m² | - |
| 1777671278 | 28.89° C | 21% | 1012 hPa | 0 mm | - | 592 W/m² | - |
| 1777670973 | 29.44° C | 21% | 1012 hPa | 0 mm | - | 605 W/m² | - |
| 1777670670 | 30° C | 21% | 1012.2 hPa | 0 mm | - | 617 W/m² | - |
* Rain latest hour (hover to see other rain measurements)
** Current wind speed in m/s (hover to see current wind gust speed)